Historique des stations

Station météo de Beddes

Altitude de la station : 224 m







Données météorologiques pour le 17/01/2021
Date
Heure
Températures Humidité Point de rosée Vitesse
du vent
Direction Rafales Windchill Pression Pluviométrie
Cumul
Date
Heure
Températures Humidité Point de rosée Vitesse
du vent
Direction Rafales Windchill Pression Pluviométrie
Cumul
17/01/2021 10:294.9 °C96 %4.4 °C-NO21 km/h5.0 1027 hPa3.6 mm
17/01/2021 10:144.8 °C96 %4.4 °C-NO21 km/h5.0 1027 hPa3.6 mm
17/01/2021 09:594.8 °C96 %4.4 °C-NNO21 km/h5.0 1027 hPa3.6 mm
17/01/2021 09:444.8 °C96 %4.4 °C-NO21 km/h5.0 1027 hPa3.6 mm
17/01/2021 09:294.9 °C96 %4.4 °C16 km/hNO21 km/h1.7 1026 hPa3.4 mm
17/01/2021 09:144.8 °C96 %4.4 °C-NO21 km/h5.0 1026 hPa3.4 mm
17/01/2021 08:594.7 °C96 %3.9 °C-NO21 km/h4.4 1026 hPa3.4 mm
17/01/2021 08:444.6 °C96 %3.9 °C-ONO21 km/h4.4 1026 hPa3.4 mm
17/01/2021 08:294.6 °C96 %3.9 °C5 km/hONO21 km/h3.3 1026 hPa3.4 mm
17/01/2021 08:144.8 °C96 %4.4 °C-O21 km/h5.0 1025 hPa3.4 mm
17/01/2021 07:594.9 °C96 %4.4 °C-NO21 km/h5.0 1025 hPa3.4 mm
17/01/2021 07:445.0 °C96 %4.4 °C-NO21 km/h5.0 1025 hPa3.4 mm
17/01/2021 07:295.1 °C96 %4.4 °C-NO21 km/h5.0 1025 hPa3.4 mm
17/01/2021 07:145.1 °C96 %4.4 °C-ONO21 km/h5.0 1025 hPa3.4 mm
17/01/2021 06:595.1 °C96 %4.4 °C8 km/hNO21 km/h2.8 1025 hPa3.4 mm
17/01/2021 06:445.1 °C96 %4.4 °C-ONO21 km/h5.0 1025 hPa3.4 mm
17/01/2021 06:295.1 °C96 %4.4 °C-ONO21 km/h5.0 1025 hPa3.4 mm
17/01/2021 06:145.2 °C96 %4.4 °C-NO21 km/h5.0 1025 hPa3.4 mm
17/01/2021 05:595.3 °C96 %5.0 °C-NO21 km/h5.6 1024 hPa3.4 mm
17/01/2021 05:445.3 °C96 %5.0 °C8 km/hNO21 km/h3.3 1025 hPa3.4 mm
17/01/2021 05:295.3 °C96 %5.0 °C-NO21 km/h5.6 1025 hPa3.4 mm
17/01/2021 05:145.2 °C96 %4.4 °C-ONO21 km/h5.0 1024 hPa3.4 mm
17/01/2021 04:595.4 °C96 %5.0 °C10 km/hONO21 km/h3.3 1024 hPa3.4 mm
17/01/2021 04:445.4 °C96 %5.0 °C-NO21 km/h5.6 1024 hPa3.4 mm
17/01/2021 04:305.4 °C96 %5.0 °C-NO21 km/h5.6 1024 hPa3.4 mm
17/01/2021 04:155.4 °C96 %5.0 °C-NO21 km/h5.6 1024 hPa3.4 mm
17/01/2021 04:005.4 °C96 %5.0 °C-ONO21 km/h5.6 1024 hPa3.4 mm
17/01/2021 03:455.5 °C96 %5.0 °C-ONO21 km/h5.6 1024 hPa3.4 mm
17/01/2021 03:305.6 °C96 %5.0 °C-NO21 km/h5.6 1024 hPa3.4 mm
17/01/2021 03:155.6 °C96 %5.0 °C-NO21 km/h5.6 1024 hPa3.4 mm
17/01/2021 03:005.7 °C96 %5.0 °C-NO21 km/h5.6 1024 hPa3.4 mm
17/01/2021 02:455.7 °C96 %5.0 °C-NO21 km/h5.6 1024 hPa3.4 mm
17/01/2021 02:295.8 °C96 %5.0 °C-NO21 km/h5.6 1024 hPa3.4 mm
17/01/2021 02:145.8 °C96 %5.0 °C-NO21 km/h5.6 1024 hPa3.4 mm
17/01/2021 01:595.8 °C96 %5.0 °C-NO21 km/h5.6 1024 hPa3.2 mm
17/01/2021 01:445.7 °C96 %5.0 °C-NNE21 km/h5.6 1024 hPa2.8 mm
17/01/2021 01:295.7 °C96 %5.0 °C-NO21 km/h5.6 1024 hPa2.6 mm
17/01/2021 01:145.7 °C96 %5.0 °C-NO21 km/h5.6 1023 hPa2.4 mm
17/01/2021 00:595.7 °C95 %5.0 °C-O21 km/h5.6 1023 hPa2.4 mm
17/01/2021 00:445.8 °C96 %5.0 °C-O21 km/h5.6 1023 hPa2.2 mm
17/01/2021 00:295.7 °C95 %5.0 °C-NNO21 km/h5.6 1024 hPa1.6 mm
17/01/2021 00:145.8 °C96 %5.6 °C-NNO21 km/h6.1 1024 hPa0.8 mm


Minima :

Température : 4.6 °C
Humidité : 95 %
Point de rosée : 3.9 °C
Vent moyen : 5 km/h
Windchill : 1.7
Pression atm. : 1023 hPa
Maxima :

Température : 5.8 °C
Humidité : 96 %
Point de rosée : 5.6 °C
Vent moyen : 16 km/h
Windchill : 6.1
Pression atm. : 1027 hPa
Rafales max : 21 km/h
Cumul de pluie sur 24H : 3.6 mm

Beddes est une commune du département Cher (18).
La station météorologique du réseau de l'association la plus proche de Beddes est celle de Culan



Icône Facebook Association Météo Centre Icône Twitter Association Météo Centre Icône Chaîne Youtube Association Météo Centre Icône contact Association Météo Centre Icône Insta Association Météo Centre